Temperature
25 24 24 24 22 20 21 22 23 23 22 22 22 21 20 19 19 19 19 19 19 19 19 19 19 19 19 19 19 19 19 19 19 19 18 18 18 18 18 18 18 18 18 18 18 18 18 18 18
25 25 24 24 21 20 22 23 23 23 22 23 22 21 19 18 18 19 19 19 19 19 19 19 19 19 19 19 19 19 19 19 19 19 18 18 18 18 18 18 18 18 18 18 18 18 18 18 18
26 25 25 21 21 21 22 23 23 23 23 23 22 20 19 19 19 19 20 19 19 19 19 19 19 19 19 19 19 19 19 19 19 18 18 18 18 18 18 18 18 18 18 18 18 18 18 18 18
26 25 24 21 23 23 23 23 23 23 23 23 21 20 19 19 20 20 20 19 19 19 19 19 19 19 19 19 19 19 19 19 19 18 18 18 18 18 18 18 18 18 18 18 18 18 18 18 17
26 25 22 22 23 24 24 24 24 23 22 22 21 19 19 19 20 20 20 20 20 19 19 19 19 19 19 19 19 19 19 19 19 18 18 18 18 18 18 18 18 18 18 18 18 18 17 18 17
27 23 21 22 24 24 24 24 23 22 22 21 20 19 18 19 20 20 20 20 20 20 19 19 19 19 19 19 19 19 19 19 18 18 18 18 18 18 18 18 18 18 18 18 18 18 18 18 17
25 21 22 23 23 24 24 24 23 22 22 22 21 19 19 19 20 20 20 20 19 19 19 19 19 19 19 19 19 19 19 19 19 18 18 18 18 18 18 18 18 18 18 18 18 18 18 17 17
26 21 23 23 24 24 25 24 23 23 22 22 22 19 19 19 20 20 20 20 19 19 19 19 19 19 19 19 19 19 19 19 19 18 18 18 18 18 18 18 18 18 18 18 18 18 17 17 17
26 22 23 24 24 24 25 24 24 23 22 22 22 21 21 20 20 20 19 19 19 19 20 19 19 19 19 19 19 19 19 19 19 19 18 18 18 18 18 18 18 18 18 18 18 17 17 17 17
26 22 24 25 24 24 25 24 24 23 22 22 21 21 21 20 20 20 20 20 20 20 20 20 20 19 19 19 19 19 19 19 19 19 18 18 18 18 18 18 18 18 18 18 18 18 17 17 17
25 25 25 26 26 26 25 24 24 23 21 22 21 21 20 20 20 20 20 21 20 20 20 20 20 19 19 19 19 19 19 19 19 19 18 18 18 18 18 18 18 18 18 18 18 18 18 18 18
26 26 27 27 27 26 25 24 24 23 24 24 23 22 21 20 20 21 21 21 20 20 20 20 20 19 19 19 19 19 19 19 19 19 18 18 18 18 18 18 18 18 18 18 18 18 18 18 18
26 26 27 27 27 26 25 24 24 23 24 24 23 22 21 21 21 21 21 21 20 20 20 20 20 19 19 19 19 19 19 19 18 18 18 18 18 18 18 18 18 18 18 18 18 18 18 18 18
26 26 26 26 26 26 24 24 24 23 23 23 22 22 21 21 21 21 21 21 21 20 20 20 20 20 19 19 19 19 19 19 18 18 18 18 18 18 18 18 18 18 18 18 18 18 18 18 18
26 25 25 25 26 25 25 24 23 23 23 22 21 21 21 21 21 21 21 21 21 21 20 20 20 20 19 19 19 19 19 19 19 18 18 18 18 18 18 18 18 18 18 18 18 18 18 18 18
25 24 24 25 25 25 25 24 23 23 23 21 21 21 21 21 21 22 22 22 21 21 21 20 20 20 19 19 19 19 19 19 18 18 18 18 18 18 18 18 18 18 18 18 18 18 18 18 18
23 23 24 25 25 25 25 24 23 23 22 21 21 21 21 21 21 22 22 22 22 21 21 20 20 20 20 19 19 19 19 19 18 18 18 18 18 18 18 18 18 18 18 18 18 18 18 18 18
24 24 24 24 25 25 24 23 22 22 22 22 22 22 21 21 22 22 22 22 22 21 21 21 20 20 20 19 19 19 19 19 19 18 18 18 18 18 18 18 18 18 18 18 18 18 18 18 18
25 24 24 24 25 24 24 23 22 22 22 22 22 22 22 22 23 22 22 22 22 21 21 21 20 20 20 19 19 19 19 19 19 19 18 18 18 18 18 18 18 18 18 18 18 17 17 18 17
24 25 24 24 25 24 23 23 22 22 22 22 22 22 22 22 22 22 22 22 22 22 21 21 20 20 20 20 19 19 19 19 19 19 19 18 18 18 18 18 18 18 18 17 17 17 17 18 17
25 24 25 24 24 23 24 23 23 22 22 22 22 22 23 23 23 23 22 22 22 22 21 21 21 20 20 19 19 19 19 19 19 19 19 18 18 18 18 18 17 17 17 17 17 17 17 17 17
24 25 25 24 23 22 24 23 22 21 21 22 22 22 23 23 23 23 23 23 23 22 22 21 21 20 20 20 19 19 19 19 19 19 19 18 18 18 18 18 17 17 17 17 17 17 17 17 17
25 24 24 23 22 22 22 22 22 21 21 21 22 23 23 23 23 24 24 24 23 23 22 21 21 21 20 20 19 19 19 19 19 18 18 18 18 18 18 18 18 17 17 17 17 17 17 17 17
24 22 21 19 19 21 22 22 22 20 21 22 22 23 24 24 24 24 24 23 23 23 22 22 21 21 20 20 19 19 19 19 19 19 18 18 18 18 18 18 17 17 17 17 17 17 17 17 17
23 21 20 21 20 20 20 21 21 21 21 22 22 23 24 24 24 24 23 23 23 23 22 22 21 21 20 20 19 19 19 19 19 18 18 18 18 18 18 17 17 17 17 17 17 17 17 17 17
22 21 21 22 21 20 20 21 21 22 22 23 23 24 24 24 24 24 24 23 23 23 23 22 21 21 20 20 20 19 19 19 19 18 18 18 18 18 17 17 17 17 17 17 17 17 17 17 17
22 21 20 18 20 20 20 20 21 22 22 22 22 23 23 24 24 24 24 24 23 23 23 22 21 21 21 20 20 19 19 19 19 18 18 18 18 17 17 17 17 17 17 17 17 17 17 17 17
21 18 18 18 20 21 22 22 21 22 22 21 21 22 23 24 24 23 23 23 23 23 22 22 21 21 20 20 20 20 19 19 18 18 18 18 17 17 17 17 17 17 17 17 17 16 16 16 16
21 20 17 16 18 19 21 21 21 21 21 21 21 22 23 24 24 24 23 23 23 23 22 22 21 21 20 20 19 19 19 19 18 18 18 17 17 17 17 17 17 16 16 16 16 16 16 16 16
22 20 18 20 19 17 19 20 22 20 20 21 21 22 23 23 23 23 23 23 22 22 22 21 21 21 20 20 19 19 19 18 18 18 17 17 17 17 17 17 16 16 16 16 16 16 16 16 16
Wind_Speed
2 3 3 2 5 6 4 3 2 4 3 3 6 7 7 4 2 5 3 7 8 6 8 11 12 12 13 14 14 14 14 15 15 15 15 15 15 16 16 16 16 16 16 16 16 16 16 16 17
2 3 2 4 6 5 4 3 4 3 5 6 7 7 7 5 4 7 5 6 8 8 8 10 12 12 12 13 13 13 14 14 14 14 14 14 14 15 15 15 15 15 16 16 15 15 16 16 16
2 1 4 5 5 4 2 1 6 5 4 4 5 6 5 4 5 5 6 9 8 7 8 10 12 12 12 12 12 12 12 13 13 13 13 13 13 14 14 14 14 14 14 14 14 14 14 15 15
2 3 5 6 5 1 4 4 7 6 5 6 6 6 5 4 5 6 11 10 9 6 8 10 11 11 11 11 11 11 11 12 12 12 12 12 12 12 13 13 13 13 13 14 14 14 14 14 14
3 5 7 5 3 2 2 5 4 4 4 5 5 6 4 4 9 12 11 10 8 6 7 9 11 11 11 10 10 10 10 11 11 11 11 11 11 11 11 11 12 12 12 13 12 12 12 12 12
4 5 6 3 2 2 3 3 4 6 6 6 5 5 3 5 10 11 9 8 7 6 6 8 10 10 10 9 9 9 9 9 10 10 10 10 10 10 10 10 10 11 11 11 11 11 11 11 11
5 5 4 3 2 1 3 4 4 5 6 5 5 6 3 5 7 9 8 7 6 5 5 5 7 8 9 9 8 8 8 8 8 8 8 9 9 8 8 8 9 9 9 10 9 9 9 9 9
5 5 4 2 3 2 4 4 4 6 5 6 5 7 6 7 10 10 8 6 5 4 3 3 5 6 6 6 7 7 7 7 7 7 7 7 7 7 7 7 7 8 8 8 8 8 7 7 7
4 5 2 4 6 4 5 5 4 4 7 4 4 5 8 15 13 11 8 5 4 5 3 3 3 4 5 5 6 6 6 6 6 5 6 6 5 5 5 5 6 6 6 6 6 6 5 5 5
5 4 5 5 6 6 7 6 7 6 5 3 6 9 15 16 14 12 11 10 8 7 5 3 3 4 4 4 4 3 3 4 3 3 4 4 4 3 3 3 3 4 4 4 4 4 3 3 3
3 4 3 2 4 7 8 6 5 9 5 6 11 17 18 16 13 11 10 9 8 7 6 5 4 5 4 2 3 3 2 3 3 3 3 3 2 1 1 2 2 1 1 2 2 2 2 2 1
2 1 2 2 4 6 8 6 5 5 5 7 15 19 18 16 14 13 12 9 7 6 7 6 5 4 4 4 3 3 3 2 2 3 4 3 1 0 0 1 1 1 0 1 1 1 1 0 1
2 2 2 4 6 6 7 5 4 1 5 13 16 16 16 15 12 9 8 7 6 7 7 6 6 6 5 4 3 3 4 4 4 4 5 5 3 2 2 2 2 2 2 1 1 1 1 1 2
1 2 3 5 6 4 6 3 4 2 10 13 14 14 14 13 12 9 8 9 9 9 8 7 7 6 5 4 4 3 5 5 5 6 7 7 6 4 3 3 3 4 4 3 3 2 2 2 2
2 5 7 4 4 3 6 3 2 6 11 12 12 11 11 10 10 11 11 11 10 9 8 8 7 6 6 5 5 5 5 5 5 6 8 8 8 7 5 3 3 5 5 4 3 2 2 2 2
5 6 3 3 2 3 7 4 3 9 12 11 10 10 10 9 10 10 10 10 9 9 9 9 8 7 7 6 5 5 5 5 5 6 7 9 9 9 7 4 5 6 5 3 2 2 2 3 3
6 3 0 2 0 3 4 4 4 8 11 11 10 10 9 8 8 9 10 10 10 10 9 8 8 8 7 6 4 4 4 4 6 6 6 7 9 9 8 5 6 6 4 3 3 3 3 3 4
2 1 1 3 2 3 3 3 4 9 10 10 10 9 9 9 10 9 8 9 9 9 8 8 7 7 6 4 2 2 2 2 4 5 6 6 7 8 7 5 6 5 3 3 3 3 3 3 3
5 3 2 4 2 3 3 3 5 8 8 9 9 9 9 10 8 6 7 7 7 7 8 8 7 7 5 3 3 3 3 2 2 3 5 5 5 5 5 4 4 4 4 5 4 3 3 3 2
4 2 1 2 1 2 1 3 3 8 10 10 11 11 10 8 6 6 6 7 8 8 8 8 7 7 6 4 3 2 2 2 2 1 2 4 5 5 5 4 4 4 4 4 4 4 3 3 3
3 5 4 3 2 5 4 5 3 3 5 5 7 8 9 11 10 9 8 7 7 8 9 8 7 6 6 5 3 2 1 1 0 1 2 2 4 4 4 4 4 4 4 5 5 5 5 4 3
3 5 5 4 4 2 2 2 6 4 4 7 9 9 10 10 10 9 9 9 9 9 8 7 7 6 6 6 5 4 3 3 3 2 2 2 3 3 5 5 5 4 4 5 5 5 5 4 4
4 3 5 4 5 3 3 1 8 2 5 9 10 11 11 10 10 10 11 11 9 8 7 6 6 6 6 6 6 5 4 3 2 1 2 3 3 3 4 4 4 4 4 5 5 4 5 5 5
6 8 8 7 6 1 2 2 7 5 7 7 8 10 10 9 9 9 7 6 6 7 7 7 7 6 5 6 5 5 5 4 2 2 2 3 2 3 3 3 3 3 3 4 4 4 4 4 4
6 7 5 4 4 5 3 3 9 8 7 7 8 9 8 7 8 8 8 8 7 8 8 7 7 6 5 6 5 5 4 3 3 3 3 3 2 2 3 2 2 2 3 3 3 3 4 4 4
6 10 9 6 5 5 1 5 8 7 4 3 4 4 4 6 7 9 9 9 8 8 7 7 7 6 5 5 5 4 3 3 2 2 2 2 2 3 2 2 2 2 2 2 2 2 3 2 3
8 5 7 8 4 1 5 7 8 4 3 1 2 3 5 6 7 8 8 8 8 8 7 7 7 6 5 5 4 3 3 3 2 2 1 1 1 1 1 1 1 2 2 1 1 0 0 1 2
7 10 7 7 6 2 5 5 5 6 5 2 2 4 5 5 6 7 7 7 7 7 6 5 5 5 4 3 3 3 2 2 2 1 1 1 1 1 2 2 2 3 3 3 2 2 1 1 0
6 6 6 6 6 7 3 7 6 8 7 5 5 5 5 5 6 7 6 6 6 7 6 6 5 4 4 3 3 3 3 3 3 2 1 1 2 2 2 2 2 3 3 3 3 2 2 2 2
6 9 9 7 4 5 5 7 6 6 6 6 5 5 4 5 5 6 6 6 6 6 5 5 5 4 4 4 4 3 4 4 3 3 2 2 2 2 2 2 3 3 3 3 3 3 3 3 3
Wind_Direction
187 160 143 94 57 51 37 6 83 87 66 67 86 85 92 74 106 135 127 131 126 123 126 123 118 112 107 104 102 100 100 100 100 100 100 101 100 99 99 100 101 102 103 104 103 103 103 105 106
162 159 101 60 74 63 0 355 81 87 132 122 84 75 74 67 69 106 124 133 124 124 124 128 123 117 113 108 105 104 103 103 103 102 102 101 101 101 100 100 100 102 104 104 104 105 106 107 107
180 145 81 67 80 128 156 85 110 104 108 95 81 67 74 100 119 131 145 133 118 120 128 134 127 121 116 112 109 107 106 104 105 104 104 103 102 101 100 100 100 102 104 104 104 106 108 109 109
103 55 54 66 71 173 166 152 130 116 71 59 91 76 70 96 132 135 133 131 122 120 132 138 131 126 121 116 113 110 109 107 106 105 104 105 104 103 103 102 102 103 104 105 105 106 108 110 112
64 74 58 52 33 35 107 141 128 101 82 72 88 88 58 46 108 123 130 132 130 126 136 142 136 132 126 122 117 114 111 109 108 108 106 105 105 106 106 106 106 107 107 107 107 107 107 110 113
58 66 75 73 47 58 110 121 100 90 93 92 90 93 68 109 120 129 128 126 127 129 134 144 142 138 133 129 125 121 116 113 111 111 110 109 108 108 108 109 109 108 110 110 110 109 109 113 115
92 85 114 137 118 122 150 110 115 120 114 117 115 100 103 133 128 125 118 115 117 122 123 130 140 140 140 139 134 130 124 120 119 117 114 114 113 113 111 112 114 114 114 113 113 114 114 115 117
114 97 91 137 149 172 139 107 113 121 111 116 113 133 161 161 130 118 111 110 119 120 123 125 127 133 139 148 147 142 137 133 131 128 123 118 112 111 113 114 118 120 119 119 117 117 117 118 119
91 76 139 192 175 171 142 123 132 97 116 123 115 140 148 138 132 127 126 130 152 163 156 144 136 139 147 157 163 157 152 147 138 133 128 111 93 89 96 110 119 122 123 122 119 115 114 119 119
84 119 211 204 180 157 146 139 147 123 127 107 89 101 126 140 146 152 160 169 179 186 187 174 168 165 166 175 158 149 145 139 127 122 119 114 106 95 96 105 123 131 130 127 121 118 109 110 110
119 172 221 201 157 137 135 136 133 134 179 184 155 144 146 152 158 166 176 181 188 189 192 187 186 186 184 179 154 155 148 144 150 160 159 144 127 91 53 45 36 53 90 84 80 79 86 127 156
119 260 193 149 132 131 139 135 127 169 216 160 150 149 154 163 172 178 181 186 181 185 201 195 189 192 198 193 184 180 175 178 194 203 197 180 168 204 315 328 318 339 16 67 30 16 348 264 232
58 339 6 94 104 114 107 112 129 144 109 122 135 148 162 171 179 183 180 179 179 194 204 201 193 197 198 196 206 200 202 206 219 225 218 206 196 206 209 237 241 246 243 235 254 261 267 279 266
4 31 47 79 96 112 117 101 98 133 128 131 146 161 172 178 178 175 177 183 191 200 207 201 199 199 194 200 210 214 214 216 220 227 224 215 212 210 213 228 242 246 242 240 242 240 241 261 260
61 58 39 42 85 126 110 60 167 154 140 145 160 170 178 183 181 188 190 192 194 197 201 199 202 198 198 209 218 222 219 216 223 231 226 218 215 212 211 217 234 241 240 241 248 255 250 251 251
51 59 50 319 75 125 126 207 199 157 152 160 172 178 184 190 193 197 196 196 193 192 196 200 202 195 201 210 217 219 217 214 226 233 229 223 221 217 212 216 231 235 225 220 222 234 246 256 248
36 80 125 294 165 134 147 214 194 165 162 173 183 186 188 193 202 202 198 196 193 193 194 193 195 192 195 204 209 213 215 218 225 228 227 223 222 220 214 220 230 225 215 214 224 214 214 241 248
179 144 219 241 249 145 179 225 178 179 177 184 190 193 193 199 209 203 196 194 193 191 189 190 191 192 185 181 180 194 215 231 229 226 228 226 222 219 215 223 229 220 216 222 220 221 215 225 236
150 156 221 253 263 155 203 226 198 184 189 195 200 200 202 210 210 197 193 188 183 184 184 186 185 186 171 166 177 186 216 223 227 228 230 232 227 218 213 232 232 221 222 224 218 215 221 231 205
140 164 227 307 32 116 148 276 227 193 205 204 202 204 203 204 199 196 197 189 188 189 191 186 187 184 184 185 175 178 181 203 220 236 245 238 230 222 221 221 234 230 227 234 227 214 214 224 189
176 186 195 185 41 46 68 340 284 232 216 213 208 203 199 201 203 200 199 202 197 193 193 193 188 186 187 180 156 124 89 43 10 276 270 264 249 236 230 231 233 232 225 231 229 217 213 225 217
227 219 168 141 104 352 74 275 283 251 233 221 217 208 207 207 205 196 194 201 202 197 185 182 180 183 183 173 173 175 185 219 230 230 252 277 260 245 236 236 234 236 233 234 236 222 216 212 225
189 94 103 100 111 58 31 149 286 290 246 238 223 217 213 207 203 200 196 197 195 183 175 178 177 185 187 183 182 181 198 217 225 245 273 281 282 267 253 245 241 239 238 236 236 227 218 215 216
127 75 59 50 68 46 255 177 277 244 228 240 223 218 214 201 195 194 184 173 173 167 172 178 181 190 179 176 178 183 194 197 210 257 278 286 288 287 279 267 253 248 244 238 233 225 223 224 222
98 94 49 20 19 248 273 202 253 260 242 227 221 218 212 191 179 169 166 173 173 172 178 178 181 189 179 177 181 186 194 194 211 238 256 277 293 293 292 290 277 266 253 244 232 224 229 220 217
158 137 153 176 204 264 312 237 261 277 275 246 216 199 184 171 167 168 174 175 176 178 178 174 178 178 172 177 181 182 188 199 224 239 242 253 263 277 295 304 305 303 295 269 225 228 236 217 221
134 151 150 128 142 128 284 289 302 311 331 4 161 164 172 173 171 168 171 174 174 171 171 174 172 169 174 180 176 177 184 187 213 233 237 257 280 296 335 357 7 11 23 35 70 67 234 201 220
136 141 109 118 138 208 293 283 259 273 276 284 180 181 182 169 163 161 167 170 165 154 149 152 158 163 162 160 168 170 172 172 169 144 126 55 10 20 43 41 38 40 48 49 68 71 70 91 93
111 102 107 113 143 151 219 270 232 233 232 225 216 195 182 173 169 166 160 153 140 131 137 146 143 137 140 146 143 135 135 129 119 107 79 64 48 45 45 48 48 45 50 56 66 62 65 71 52
154 158 145 147 182 162 166 260 275 242 229 206 196 183 170 160 155 146 139 132 130 127 127 135 135 144 150 142 131 127 120 111 105 93 71 66 62 55 56 57 57 52 51 57 69 64 58 58 51
Height
1492 1492 1492 1494 1498 1512 1518 1512 1507 1508 1510 1510 1511 1513 1516 1520 1523 1529 1527 1528 1530 1531 1533 1534 1535 1535 1536 1536 1537 1537 1538 1538 1539 1539 1540 1540 1541 1542 1542 1543 1544 1544 1545 1546 1547 1548 1549 1550 1551
1493 1493 1495 1496 1509 1527 1523 1511 1510 1509 1510 1511 1513 1515 1517 1520 1522 1524 1526 1529 1532 1533 1534 1536 1537 1538 1538 1539 1540 1540 1540 1541 1542 1542 1543 1543 1544 1545 1545 1546 1547 1547 1548 1549 1550 1551 1552 1553 1553
1494 1495 1497 1501 1515 1525 1520 1511 1510 1511 1511 1512 1515 1517 1520 1523 1524 1526 1528 1530 1533 1535 1537 1538 1539 1540 1541 1542 1542 1543 1543 1544 1544 1545 1545 1546 1547 1547 1548 1549 1549 1550 1551 1552 1553 1553 1554 1555 1556
1495 1497 1499 1509 1517 1514 1512 1511 1510 1511 1513 1514 1516 1520 1523 1526 1527 1528 1530 1532 1535 1537 1539 1540 1541 1542 1543 1544 1545 1545 1546 1546 1547 1547 1548 1549 1549 1550 1551 1551 1552 1553 1554 1554 1555 1556 1557 1558 1559
1496 1498 1508 1519 1516 1511 1510 1511 1512 1512 1514 1517 1518 1522 1526 1528 1529 1530 1532 1535 1537 1539 1541 1542 1544 1544 1545 1546 1547 1548 1548 1549 1549 1550 1550 1551 1552 1553 1553 1554 1555 1555 1556 1557 1558 1558 1559 1560 1561
1498 1501 1520 1527 1518 1512 1512 1513 1513 1515 1517 1519 1520 1523 1528 1530 1531 1533 1535 1537 1539 1541 1543 1544 1546 1547 1548 1548 1549 1550 1551 1551 1552 1552 1553 1553 1554 1555 1555 1556 1557 1558 1558 1559 1560 1561 1562 1563 1563
1500 1508 1520 1520 1519 1516 1513 1514 1515 1516 1518 1520 1522 1525 1529 1531 1533 1535 1537 1539 1541 1543 1545 1546 1547 1548 1549 1550 1551 1552 1553 1553 1554 1554 1555 1556 1556 1557 1557 1558 1559 1560 1561 1561 1562 1563 1564 1565 1566
1500 1508 1518 1520 1519 1517 1513 1514 1516 1518 1519 1522 1523 1525 1528 1531 1534 1536 1539 1541 1543 1545 1546 1548 1549 1550 1551 1552 1553 1554 1554 1555 1556 1556 1557 1558 1558 1559 1560 1560 1561 1562 1563 1563 1564 1565 1566 1567 1568
1502 1513 1522 1518 1516 1514 1512 1515 1518 1519 1520 1523 1524 1525 1528 1531 1534 1537 1540 1542 1544 1546 1547 1549 1550 1551 1552 1553 1554 1555 1556 1557 1558 1558 1559 1559 1560 1561 1561 1562 1563 1564 1564 1565 1566 1567 1568 1568 1569
1503 1516 1513 1507 1507 1509 1511 1514 1517 1519 1521 1523 1524 1527 1530 1532 1535 1538 1540 1542 1544 1546 1548 1550 1551 1552 1553 1555 1556 1557 1558 1558 1559 1560 1561 1561 1562 1563 1563 1564 1564 1565 1566 1567 1567 1568 1569 1570 1570
1503 1508 1505 1504 1505 1507 1511 1514 1516 1518 1522 1521 1522 1525 1529 1532 1536 1538 1541 1543 1545 1547 1549 1551 1552 1553 1555 1556 1557 1558 1559 1560 1561 1561 1562 1563 1564 1564 1565 1566 1566 1567 1567 1568 1568 1569 1570 1571 1571
1504 1504 1503 1504 1506 1508 1512 1515 1517 1518 1519 1519 1522 1525 1529 1532 1535 1538 1541 1544 1546 1548 1550 1552 1553 1554 1556 1557 1558 1559 1560 1561 1562 1563 1563 1564 1565 1566 1566 1567 1567 1568 1568 1569 1569 1570 1571 1571 1572
1504 1504 1504 1505 1507 1510 1513 1516 1517 1519 1520 1521 1524 1528 1530 1533 1536 1540 1543 1545 1547 1549 1550 1552 1553 1555 1556 1558 1559 1560 1561 1562 1563 1564 1564 1565 1566 1566 1567 1568 1568 1568 1569 1569 1570 1571 1571 1572 1572
1505 1505 1506 1507 1509 1512 1515 1518 1519 1521 1521 1524 1526 1529 1531 1534 1537 1540 1543 1545 1547 1549 1551 1552 1554 1555 1557 1558 1559 1560 1562 1563 1564 1564 1565 1565 1566 1567 1567 1567 1568 1569 1569 1570 1570 1571 1571 1572 1572
1505 1507 1509 1510 1510 1513 1516 1521 1520 1521 1523 1525 1528 1530 1533 1535 1538 1540 1542 1544 1546 1549 1551 1552 1554 1556 1557 1558 1559 1560 1562 1563 1564 1564 1565 1565 1566 1566 1567 1567 1567 1568 1569 1569 1570 1570 1571 1571 1571
1508 1515 1522 1514 1512 1514 1519 1527 1520 1520 1522 1525 1528 1531 1533 1535 1538 1540 1542 1544 1546 1548 1550 1552 1554 1555 1556 1558 1559 1560 1561 1562 1563 1563 1564 1564 1565 1565 1566 1566 1566 1567 1568 1568 1568 1569 1569 1570 1570
1520 1527 1526 1519 1513 1514 1518 1523 1519 1520 1522 1524 1527 1530 1532 1535 1537 1539 1541 1544 1546 1548 1549 1551 1553 1554 1556 1557 1559 1560 1560 1561 1562 1562 1563 1563 1564 1564 1564 1565 1565 1566 1566 1566 1567 1567 1568 1568 1569
1527 1527 1526 1524 1515 1515 1519 1520 1519 1520 1522 1524 1526 1529 1531 1533 1535 1538 1540 1543 1545 1547 1548 1550 1552 1553 1555 1556 1557 1558 1559 1560 1560 1561 1561 1562 1562 1562 1563 1563 1563 1563 1564 1564 1564 1565 1566 1566 1567
1517 1522 1525 1520 1513 1516 1520 1520 1519 1520 1522 1524 1525 1527 1529 1531 1534 1537 1539 1541 1543 1545 1547 1549 1550 1552 1553 1554 1555 1556 1557 1558 1559 1559 1560 1560 1560 1560 1561 1560 1561 1561 1561 1561 1562 1562 1563 1563 1564
1516 1522 1524 1519 1514 1517 1521 1521 1518 1519 1519 1520 1522 1524 1526 1529 1532 1534 1537 1539 1541 1543 1545 1547 1549 1550 1552 1553 1554 1555 1556 1557 1557 1557 1558 1558 1558 1558 1558 1558 1558 1558 1558 1558 1559 1559 1560 1560 1561
1516 1520 1520 1521 1518 1519 1522 1527 1521 1518 1518 1520 1520 1521 1523 1526 1528 1531 1534 1537 1539 1541 1543 1545 1547 1548 1549 1551 1553 1554 1554 1555 1555 1555 1555 1556 1556 1556 1555 1555 1554 1554 1554 1555 1555 1556 1557 1557 1558
1519 1511 1513 1517 1526 1535 1529 1544 1526 1520 1518 1517 1517 1518 1519 1522 1525 1528 1531 1534 1536 1538 1541 1543 1545 1546 1548 1549 1550 1551 1551 1552 1553 1553 1553 1554 1553 1553 1552 1552 1551 1551 1551 1551 1552 1552 1553 1554 1554
1511 1508 1513 1519 1528 1537 1535 1543 1534 1521 1520 1514 1512 1513 1515 1518 1521 1524 1527 1530 1532 1536 1539 1541 1543 1545 1546 1547 1548 1549 1550 1550 1551 1551 1551 1551 1551 1550 1550 1549 1548 1548 1547 1547 1548 1548 1549 1550 1550
1506 1514 1522 1531 1538 1550 1540 1544 1539 1525 1516 1510 1508 1509 1511 1514 1517 1521 1525 1528 1531 1533 1536 1539 1541 1542 1544 1545 1546 1547 1548 1548 1549 1549 1549 1549 1548 1548 1547 1546 1545 1545 1544 1544 1544 1544 1545 1546 1546
1509 1528 1549 1552 1561 1557 1542 1542 1536 1512 1507 1505 1505 1505 1507 1511 1514 1518 1521 1525 1528 1531 1533 1536 1538 1540 1541 1543 1544 1545 1546 1547 1547 1547 1547 1547 1546 1545 1544 1544 1543 1542 1542 1541 1541 1541 1541 1542 1542
1511 1522 1548 1559 1562 1556 1544 1543 1524 1507 1503 1502 1502 1504 1506 1509 1512 1515 1518 1521 1525 1528 1531 1534 1536 1538 1539 1541 1542 1543 1544 1545 1545 1546 1545 1545 1544 1543 1543 1542 1541 1540 1539 1539 1539 1538 1538 1539 1539
1513 1521 1523 1543 1550 1554 1548 1536 1517 1504 1503 1502 1502 1504 1505 1507 1510 1513 1516 1520 1523 1526 1529 1532 1535 1536 1538 1539 1541 1541 1542 1543 1543 1544 1544 1543 1543 1542 1541 1540 1539 1538 1538 1537 1537 1536 1536 1536 1536
1502 1514 1530 1543 1558 1558 1546 1539 1530 1511 1506 1503 1503 1503 1504 1507 1510 1513 1516 1519 1522 1525 1529 1532 1534 1535 1537 1538 1539 1540 1541 1541 1542 1542 1542 1542 1541 1540 1540 1539 1538 1537 1536 1536 1535 1535 1535 1535 1534
1509 1516 1527 1540 1542 1556 1556 1542 1511 1507 1503 1503 1503 1503 1504 1506 1509 1512 1515 1519 1522 1524 1528 1531 1532 1534 1535 1537 1538 1539 1540 1540 1541 1541 1541 1540 1540 1539 1538 1537 1536 1536 1535 1534 1534 1534 1534 1533 1533
1497 1508 1519 1533 1542 1546 1548 1538 1502 1501 1500 1501 1502 1503 1505 1507 1510 1513 1515 1518 1521 1523 1527 1529 1531 1533 1534 1536 1537 1538 1539 1539 1539 1539 1539 1539 1538 1537 1537 1536 1535 1534 1534 1533 1533 1533 1533 1532 1531